Location: DARK SKY Beskydy - Park tmavé oblohy, www.darkskybeskydy.cz
(49.4926°N, 18.5016°E)
Time: 16:48:59
(UTC+02:00)

ACS3 Solar Sail - Pass Details

Date: 27 June 2024
Orbit: 992 x 1023 km, 97.4° (Epoch: 12 July)

Event Time Altitude Azimuth Distance (km) Brightness Sun altitude
Exits shadow 22:38:57 - 186° (S) 2,969 6.9 -11.7°
Reaches altitude 10° 22:39:32 10° 188° (S) 2,755 6.7 -11.7°
Maximum altitude 22:45:33 51° 263° (W) 1,239 5.5 -12.2°
Drops below altitude 10° 22:51:36 10° 339° (NNW) 2,767 8.7 -12.7°
Sets 22:54:11 0° 344° (NNW) 3,720 9.7 -12.9°
